Ward, CO

5:17 PM MST on February 06, 2016 (GMT -0700)
Niwot Ridge Corona Pass

Weather History for KCRV - January, 2003

Change the Weather History Date:

Thursday, January 30, 2003

  Actual Average (KBDU) Record (KBDU)
Temperature  
Mean Temperature 24 °F -  
Max Temperature 28 °F - - ()
Min Temperature 21 °F - - ()
Degree Days  
Heating Degree Days 40    
Month to date heating degree days  
Cooling Degree Days 0    
Month to date cooling degree days  
Moisture  
Dew Point 22 °F    
Average Humidity 86    
Maximum Humidity 100    
Minimum Humidity 74    
Precipitation  
Precipitation 0.00 in - - ()
Sea Level Pressure  
Sea Level Pressure 30.09 in    
Wind  
Wind Speed 42 mph (WNW)    
Max Wind Speed 52 mph    
Max Gust Speed 66 mph    
Visibility 4 miles    
Events Snow    
T = Trace of Precipitation, MM = Missing Value Source: NWS Daily Summary

Daily Weather History Graph

Daily Weather History Graph

Search for Another Location

Airport or City:

Trip Planner

Search our weather history database for the weather conditions in past years. The results will help you decide how hot, cold, wet, or windy it might be!

Date:

Astronomy

Jan. 30, 2003 Rise Set
Actual Time 7:13 AM MST 5:18 PM MST
Civil Twilight 6:44 AM MST 5:47 PM MST
Nautical Twilight 6:11 AM MST 6:20 PM MST
Astronomical Twilight 5:39 AM MST 6:51 PM MST
Moon 6:16 AM MST (1/30) 3:27 PM MST (1/30)
Length of Visible Light 11h 03m
Length of Day
10h 05m
Waning Crescent, 3% of the Moon is Illuminated
Jan 30
Waning Crescent
Feb 1
New
Feb 9
First Quarter
Feb 16
Full
Feb 23
Last Quarter

Hourly Weather History & Observations

Time (MST) Temp. Windchill Dew Point Humidity Pressure Visibility Wind Dir Wind Speed Gust Speed Precip Events Conditions
12:09 AM 23.0 °F 2.0 °F 17.6 °F 80% 30.10 in 2.0 mi WNW 47.2 mph 57.5 mph N/A Snow Light Snow
12:29 AM 23.0 °F 1.8 °F 17.6 °F 80% 30.10 in 2.5 mi WNW 48.3 mph 58.7 mph N/A Snow Light Snow
12:49 AM 24.8 °F 4.8 °F 17.6 °F 74% 30.12 in 5.0 mi WNW 46.0 mph 58.7 mph N/A   Haze
1:09 AM 24.8 °F 4.8 °F 17.6 °F 74% 30.09 in 3.0 mi WNW 46.0 mph 59.8 mph N/A   Haze
1:29 AM 24.8 °F 4.8 °F 17.6 °F 74% 30.11 in 7.0 mi WNW 46.0 mph 54.1 mph N/A   Scattered Clouds
1:49 AM 24.8 °F 5.1 °F 17.6 °F 74% 30.13 in 10.0 mi WNW 43.7 mph 55.2 mph N/A   Scattered Clouds
2:09 AM 23.0 °F 2.4 °F 17.6 °F 80% 30.10 in 10.0 mi WNW 44.9 mph 52.9 mph N/A   Overcast
2:29 AM 23.0 °F 1.8 °F 17.6 °F 80% 30.08 in 4.0 mi WNW 48.3 mph 61.0 mph N/A   Haze
2:49 AM 23.0 °F 2.0 °F 17.6 °F 80% 30.08 in 7.0 mi WNW 47.2 mph 57.5 mph N/A   Clear
3:09 AM 23.0 °F 2.4 °F 19.4 °F 86% 30.08 in 4.0 mi WNW 44.9 mph 56.4 mph N/A   Clear
3:29 AM 23.0 °F 1.8 °F 19.4 °F 86% 30.07 in 3.0 mi WNW 48.3 mph 57.5 mph N/A   Clear
3:49 AM 24.8 °F 3.9 °F 19.4 °F 80% 30.06 in 4.0 mi WNW 51.8 mph 59.8 mph N/A   Haze
4:09 AM 24.8 °F 4.8 °F 19.4 °F 80% 30.07 in 7.0 mi WNW 46.0 mph 58.7 mph N/A   Clear
4:29 AM 23.0 °F 2.4 °F 19.4 °F 86% 30.09 in 10.0 mi WNW 44.9 mph 57.5 mph N/A   Clear
4:49 AM 21.2 °F 0.3 °F 19.4 °F 93% 30.07 in 5.0 mi West 42.6 mph 54.1 mph N/A   Clear
5:09 AM 23.0 °F 2.8 °F 19.4 °F 86% 30.08 in 7.0 mi West 42.6 mph 54.1 mph N/A   Scattered Clouds
5:29 AM 23.0 °F 3.4 °F 17.6 °F 80% 30.08 in 10.0 mi West 39.1 mph 48.3 mph N/A   Mostly Cloudy
5:49 AM 24.8 °F 4.6 °F 19.4 °F 80% 30.05 in 4.0 mi West 47.2 mph 54.1 mph N/A   Mostly Cloudy
6:09 AM 24.8 °F 4.8 °F 19.4 °F 80% 30.07 in 5.0 mi WNW 46.0 mph 56.4 mph N/A   Haze
6:30 AM 26.6 °F 7.5 °F 19.4 °F 74% 30.10 in 10.0 mi WNW 44.9 mph 55.2 mph N/A   Scattered Clouds
6:49 AM 24.8 °F 5.7 °F 19.4 °F 80% 30.11 in 10.0 mi WNW 40.3 mph 50.6 mph N/A   Mostly Cloudy
7:29 AM 26.6 °F 8.1 °F 21.2 °F 80% 30.10 in 3.0 mi WNW 41.4 mph 55.2 mph N/A   Haze
7:49 AM 26.6 °F 9.3 °F 21.2 °F 80% 30.13 in 10.0 mi WNW 34.5 mph 44.9 mph N/A   Overcast
8:09 AM 26.6 °F 9.6 °F 21.2 °F 80% 30.16 in 4.0 mi WNW 33.4 mph 40.3 mph N/A   Overcast
8:29 AM 24.8 °F 7.6 °F 21.2 °F 86% 30.14 in 0.8 mi West 31.1 mph 40.3 mph N/A Snow Light Snow
8:49 AM 24.8 °F 7.3 °F 21.2 °F 86% 30.15 in 1.0 mi West 32.2 mph 43.7 mph N/A Snow Light Snow
9:08 AM 24.8 °F 7.1 °F 21.2 °F 86% 30.15 in 4.0 mi West 33.4 mph 38.0 mph N/A   Overcast
9:28 AM 24.8 °F 6.4 °F 21.2 °F 86% 30.13 in 2.5 mi West 36.8 mph 43.7 mph N/A   Overcast
9:48 AM 26.6 °F 9.8 °F 23.0 °F 86% 30.13 in 4.0 mi West 32.2 mph 41.4 mph N/A   Overcast
10:08 AM 26.6 °F 9.6 °F 21.2 °F 80% 30.11 in 3.0 mi West 33.4 mph 47.2 mph N/A   Overcast
10:31 AM 24.8 °F 5.5 °F 21.2 °F 86% 30.11 in 1.2 mi WNW 41.4 mph 50.6 mph N/A Snow Light Snow
10:48 AM 24.8 °F 7.3 °F 21.2 °F 86% 30.11 in 2.5 mi West 32.2 mph 49.5 mph N/A   Overcast
11:08 AM 26.6 °F 8.3 °F 23.0 °F 86% 30.10 in 2.0 mi WNW 40.3 mph 50.6 mph N/A   Overcast
11:28 AM 26.6 °F 10.6 °F 23.0 °F 86% 30.14 in 2.5 mi WNW 28.8 mph 40.3 mph N/A   Overcast
11:48 AM 26.6 °F 11.4 °F 23.0 °F 86% 30.13 in 2.0 mi WNW 25.3 mph 36.8 mph N/A   Overcast
12:11 PM 26.6 °F 10.3 °F 24.8 °F 93% 30.09 in 0.2 mi WNW 29.9 mph 43.7 mph N/A Snow Snow
12:28 PM 26.6 °F 9.6 °F 23.0 °F 86% 30.06 in 0.2 mi WNW 33.4 mph 57.5 mph N/A Snow Snow
12:48 PM 26.6 °F 8.3 °F 24.8 °F 93% 30.01 in 0.2 mi WNW 40.3 mph 54.1 mph N/A Snow Heavy Snow
1:08 PM 26.6 °F 6.9 °F 24.8 °F 93% 30.01 in 0.2 mi WNW 48.3 mph 65.6 mph N/A Snow Heavy Snow
1:28 PM 26.6 °F 8.1 °F 24.8 °F 93% 30.02 in 0.2 mi WNW 41.4 mph 61.0 mph N/A Snow Heavy Snow
1:48 PM 26.6 °F 8.3 °F 24.8 °F 93% 30.04 in 0.2 mi West 40.3 mph 51.8 mph N/A Snow Heavy Snow
2:08 PM 26.6 °F 8.5 °F 26.6 °F 100% 30.04 in 0.2 mi West 39.1 mph 56.4 mph N/A Snow Heavy Snow
2:28 PM 26.6 °F 8.7 °F 26.6 °F 100% 30.06 in 0.2 mi West 38.0 mph 48.3 mph N/A Snow Light Snow
2:48 PM 26.6 °F 9.6 °F 26.6 °F 100% 30.07 in 0.2 mi West 33.4 mph 46.0 mph N/A Snow Light Snow
3:08 PM 28.4 °F 12.7 °F 26.6 °F 93% 30.08 in 0.5 mi WNW 29.9 mph 49.5 mph N/A Snow Light Snow
3:28 PM 28.4 °F 12.5 °F 26.6 °F 93% 30.09 in 0.8 mi NW 31.1 mph 44.9 mph N/A Snow Light Snow
3:48 PM 28.4 °F 14.4 °F 26.6 °F 93% 30.08 in 0.2 mi WNW 23.0 mph 44.9 mph N/A Snow Light Snow
4:08 PM 28.4 °F 13.5 °F 26.6 °F 93% 30.07 in 0.2 mi WNW 26.5 mph 55.2 mph N/A Snow Snow
4:30 PM 28.4 °F 12.5 °F 26.6 °F 93% 30.07 in 0.2 mi WNW 31.1 mph 50.6 mph N/A Snow Snow
4:48 PM 28.4 °F 13.8 °F 26.6 °F 93% 30.08 in 0.2 mi West 25.3 mph 49.5 mph N/A Snow Snow
5:08 PM 28.4 °F 12.3 °F 26.6 °F 93% 30.06 in 0.2 mi WNW 32.2 mph 49.5 mph N/A Snow Snow
5:28 PM 28.4 °F 12.0 °F 26.6 °F 93% 30.08 in 0.2 mi West 33.4 mph 59.8 mph N/A Snow Heavy Snow
5:48 PM 28.4 °F 12.3 °F 26.6 °F 93% 30.07 in 0.2 mi NW 32.2 mph 55.2 mph N/A Snow Heavy Snow
6:08 PM 28.4 °F 12.5 °F 26.6 °F 93% 30.07 in 0.2 mi WNW 31.1 mph 46.0 mph N/A Snow Heavy Snow
6:28 PM 28.4 °F 11.6 °F 26.6 °F 93% 30.10 in 0.2 mi West 35.7 mph 51.8 mph N/A Snow Snow
6:48 PM 28.4 °F 12.0 °F 26.6 °F 93% 30.10 in 0.2 mi West 33.4 mph 63.3 mph N/A Snow Heavy Snow
7:08 PM 28.4 °F 11.2 °F 26.6 °F 93% 30.10 in 0.2 mi WNW 38.0 mph 57.5 mph N/A Snow Heavy Snow
7:28 PM 28.4 °F 11.0 °F 26.6 °F 93% 30.12 in 0.2 mi WNW 39.1 mph 49.5 mph N/A Snow Heavy Snow
7:48 PM 28.4 °F 11.6 °F 26.6 °F 93% 30.14 in 0.2 mi WNW 35.7 mph 51.8 mph N/A Snow Heavy Snow
8:10 PM 28.4 °F 11.0 °F 26.6 °F 93% 30.14 in 0.2 mi WNW 39.1 mph 51.8 mph N/A Snow Heavy Snow
8:28 PM 28.4 °F 12.5 °F 26.6 °F 93% 30.16 in 0.2 mi WNW 31.1 mph 52.9 mph N/A Snow Heavy Snow
8:48 PM 28.4 °F 12.3 °F 26.6 °F 93% 30.18 in 0.2 mi West 32.2 mph 50.6 mph N/A Snow Heavy Snow
9:08 PM 28.4 °F 11.8 °F 26.6 °F 93% 30.19 in 0.2 mi WNW 34.5 mph 56.4 mph N/A Snow Heavy Snow
9:28 PM 28.4 °F 10.8 °F 26.6 °F 93% 30.19 in 0.2 mi WNW 40.3 mph 55.2 mph N/A Snow Heavy Snow
9:48 PM 28.4 °F 10.2 °F 26.6 °F 93% 30.19 in 0.2 mi NW 43.7 mph 57.5 mph N/A Snow Heavy Snow
10:08 PM 26.6 °F 10.0 °F 26.6 °F 100% 30.20 in 0.2 mi WNW 31.1 mph 63.3 mph N/A Snow Heavy Snow
10:28 PM 26.6 °F 8.3 °F 26.6 °F 100% 30.19 in 0.2 mi WNW 40.3 mph 54.1 mph N/A Snow Heavy Snow
10:48 PM 26.6 °F 7.9 °F 26.6 °F 100% 30.20 in 0.2 mi WNW 42.6 mph 54.1 mph N/A Snow Heavy Snow
11:08 PM 26.6 °F 8.1 °F 24.8 °F 93% 30.20 in 0.2 mi WNW 41.4 mph 57.5 mph N/A Snow Heavy Snow
11:28 PM 26.6 °F 7.9 °F 26.6 °F 100% 30.20 in 0.2 mi WNW 42.6 mph 50.6 mph N/A Snow Heavy Snow
11:48 PM 26.6 °F 8.1 °F 26.6 °F 100% 30.20 in 0.2 mi WNW 41.4 mph 56.4 mph N/A Snow Heavy Snow